AFR71FJ EDDM-LFPG

Flight info

Callsign AFR71FJ
Flight time N/A
Altitude 34000
Route GIVMI6S GIVMI Y101 INBED DCT REKDI DCT LOHRE DCT BOMBI DCT RUDUS DCT BETEX DCT DIK UN857 TOLVU/N0450F350 DCT RAPOR DCT VEDUS
Aircraft A321/M-SDE3FGHIRWY/LB1

Departure

Time N/A
Airport Munich Airport (EDDM)

Arrival

Time 2026-05-06 17:33
Airport Charles de Gaulle International Airport (LFPG)
Time Latitude Longitude Altitude Speed Heading
2026-05-06 16:30 48.90533 11.18865 18517 ft 412 kts 338°
2026-05-06 16:30 48.93264 11.17488 18930 ft 415 kts 338°
2026-05-06 16:31 48.96007 11.16100 19339 ft 417 kts 338°
2026-05-06 16:31 48.98770 11.14697 19748 ft 420 kts 338°
2026-05-06 16:31 49.01545 11.13284 20213 ft 421 kts 338°
2026-05-06 16:31 49.04331 11.11860 20642 ft 423 kts 338°
2026-05-06 16:32 49.07126 11.10425 21038 ft 426 kts 338°
2026-05-06 16:32 49.09942 11.08977 21435 ft 429 kts 339°
2026-05-06 16:32 49.12775 11.07525 21868 ft 430 kts 339°
2026-05-06 16:32 49.15621 11.06072 22268 ft 433 kts 339°
2026-05-06 16:33 49.18481 11.04616 22657 ft 435 kts 339°
2026-05-06 16:33 49.21364 11.03145 23056 ft 438 kts 339°
2026-05-06 16:33 49.24259 11.01657 23460 ft 439 kts 339°
2026-05-06 16:34 49.30069 10.98655 24080 ft 444 kts 338°
2026-05-06 16:34 49.33049 10.97115 24383 ft 446 kts 338°
2026-05-06 16:34 49.35920 10.95330 24671 ft 445 kts 329°
2026-05-06 16:34 49.38563 10.92881 24958 ft 443 kts 320°
2026-05-06 16:35 49.40907 10.89829 25253 ft 440 kts 310°
2026-05-06 16:35 49.42908 10.86308 25546 ft 439 kts 304°
2026-05-06 16:35 49.44831 10.82652 25849 ft 441 kts 304°
2026-05-06 16:35 49.46767 10.78987 26177 ft 442 kts 305°
2026-05-06 16:36 49.48711 10.75305 26485 ft 445 kts 305°
2026-05-06 16:36 49.50662 10.71603 26756 ft 447 kts 305°
2026-05-06 16:36 49.52622 10.67876 27014 ft 449 kts 305°
2026-05-06 16:36 49.54591 10.64126 27287 ft 451 kts 305°
2026-05-06 16:37 49.56567 10.60360 27561 ft 453 kts 304°
2026-05-06 16:37 49.58546 10.56580 27826 ft 455 kts 304°
2026-05-06 16:37 49.60533 10.52772 28100 ft 457 kts 304°
2026-05-06 16:37 49.62531 10.48936 28362 ft 459 kts 304°
2026-05-06 16:38 49.64529 10.45094 28633 ft 461 kts 304°
2026-05-06 16:38 49.66501 10.41191 28939 ft 460 kts 302°
2026-05-06 16:38 49.68390 10.37149 29314 ft 459 kts 300°
2026-05-06 16:38 49.70163 10.33115 29638 ft 459 kts 298°
2026-05-06 16:39 49.71939 10.28941 29973 ft 458 kts 298°
2026-05-06 16:39 49.73682 10.24827 30279 ft 458 kts 298°
2026-05-06 16:39 49.75434 10.20733 30666 ft 455 kts 298°
2026-05-06 16:39 49.77188 10.16689 31079 ft 452 kts 298°
2026-05-06 16:40 49.78945 10.12675 31453 ft 450 kts 298°
2026-05-06 16:40 49.80703 10.08682 31804 ft 448 kts 298°
2026-05-06 16:40 49.82455 10.04703 32144 ft 446 kts 298°
2026-05-06 16:40 49.84198 10.00732 32508 ft 445 kts 298°
2026-05-06 16:41 49.85934 9.96761 32745 ft 446 kts 298°
2026-05-06 16:41 49.87667 9.92769 32987 ft 447 kts 298°
2026-05-06 16:41 49.89402 9.88767 33271 ft 447 kts 298°
2026-05-06 16:41 49.91136 9.84772 33566 ft 446 kts 298°
2026-05-06 16:42 49.92868 9.80775 33756 ft 446 kts 298°
2026-05-06 16:42 49.96306 9.72832 33792 ft 442 kts 297°
2026-05-06 16:43 49.99146 9.66249 33799 ft 441 kts 297°
2026-05-06 16:43 50.02551 9.58316 33803 ft 442 kts 299°
2026-05-06 16:44 50.05457 9.49968 33794 ft 436 kts 284°
2026-05-06 16:44 50.06570 9.40779 33795 ft 426 kts 267°
2026-05-06 16:45 50.06445 9.30101 33799 ft 425 kts 265°
2026-05-06 16:45 50.06341 9.22392 33797 ft 425 kts 265°
2026-05-06 16:46 50.06211 9.13189 33821 ft 426 kts 265°
2026-05-06 16:46 50.06072 9.03969 33798 ft 427 kts 265°
2026-05-06 16:47 50.05920 8.94715 33798 ft 428 kts 265°
2026-05-06 16:47 50.05753 8.85458 33800 ft 428 kts 264°
2026-05-06 16:48 50.05596 8.76195 33809 ft 429 kts 265°
2026-05-06 16:48 50.05506 8.66915 33809 ft 429 kts 265°
2026-05-06 16:49 50.05432 8.57623 33812 ft 429 kts 265°
2026-05-06 16:49 50.05330 8.48334 33814 ft 429 kts 265°
2026-05-06 16:50 50.05206 8.39057 33819 ft 429 kts 265°
2026-05-06 16:50 50.05079 8.29762 33818 ft 429 kts 265°
2026-05-06 16:51 50.04950 8.20481 33820 ft 430 kts 265°
2026-05-06 16:51 50.04809 8.11116 33808 ft 431 kts 265°
2026-05-06 16:52 50.03973 8.01949 33804 ft 428 kts 255°
2026-05-06 16:52 50.02763 7.92910 33806 ft 429 kts 256°
2026-05-06 16:53 50.01552 7.83821 33812 ft 429 kts 255°
2026-05-06 16:53 50.00330 7.74743 33827 ft 429 kts 256°
2026-05-06 16:54 49.99095 7.65669 33817 ft 430 kts 255°
2026-05-06 16:54 49.97851 7.56578 33812 ft 431 kts 255°
2026-05-06 16:55 49.96595 7.47475 33827 ft 431 kts 255°
2026-05-06 16:55 49.95333 7.38375 33831 ft 431 kts 255°
2026-05-06 16:56 49.94056 7.29218 33834 ft 431 kts 255°
2026-05-06 16:56 49.92784 7.20122 33840 ft 432 kts 255°
2026-05-06 16:57 49.91505 7.11023 33807 ft 432 kts 255°
2026-05-06 16:57 49.90208 7.01922 33804 ft 432 kts 255°
2026-05-06 16:58 49.88905 6.92826 33807 ft 433 kts 255°
2026-05-06 16:58 49.87595 6.83715 33810 ft 433 kts 255°
2026-05-06 16:59 49.86278 6.74592 33819 ft 433 kts 255°
2026-05-06 16:59 49.84957 6.65498 33818 ft 433 kts 255°
2026-05-06 17:00 49.83629 6.56396 33816 ft 433 kts 255°
2026-05-06 17:00 49.82328 6.47278 33835 ft 434 kts 259°
2026-05-06 17:01 49.82345 6.37847 33835 ft 440 kts 278°
2026-05-06 17:01 49.83759 6.28609 33867 ft 441 kts 281°
2026-05-06 17:02 49.84827 6.19312 33868 ft 436 kts 268°
2026-05-06 17:02 49.83930 6.10133 33869 ft 430 kts 249°
2026-05-06 17:03 49.81126 6.02072 33849 ft 426 kts 233°
2026-05-06 17:03 49.77686 5.94613 33847 ft 426 kts 233°
2026-05-06 17:04 49.74365 5.86996 33860 ft 428 kts 242°
2026-05-06 17:04 49.72188 5.78404 33850 ft 431 kts 249°
2026-05-06 17:05 49.70165 5.69665 33853 ft 432 kts 249°
2026-05-06 17:05 49.68115 5.60919 33858 ft 433 kts 249°
2026-05-06 17:06 49.66063 5.52186 33862 ft 433 kts 249°
2026-05-06 17:06 49.64007 5.43447 33854 ft 433 kts 249°
2026-05-06 17:07 49.61956 5.34712 33847 ft 434 kts 250°
2026-05-06 17:07 49.60035 5.25858 33843 ft 436 kts 252°
2026-05-06 17:08 49.59188 5.16542 33852 ft 440 kts 270°
2026-05-06 17:08 49.59263 5.11817 33588 ft 441 kts 270°
2026-05-06 17:08 49.59317 5.07055 32617 ft 447 kts 269°
2026-05-06 17:08 49.59349 5.02266 31794 ft 449 kts 269°
2026-05-06 17:09 49.59370 4.97436 30922 ft 452 kts 269°
2026-05-06 17:09 49.59387 4.92589 30229 ft 452 kts 270°
2026-05-06 17:09 49.59408 4.87746 29519 ft 451 kts 269°
2026-05-06 17:09 49.59435 4.82934 28929 ft 446 kts 269°
2026-05-06 17:10 49.59464 4.78180 28362 ft 442 kts 269°
2026-05-06 17:10 49.59492 4.73496 28108 ft 430 kts 270°
2026-05-06 17:10 49.59520 4.68948 27828 ft 420 kts 269°
2026-05-06 17:10 49.59546 4.64485 27379 ft 414 kts 269°
2026-05-06 17:11 49.59571 4.60080 26880 ft 409 kts 269°
2026-05-06 17:11 49.59590 4.55720 26366 ft 406 kts 269°
2026-05-06 17:11 49.59605 4.51377 25873 ft 402 kts 269°
2026-05-06 17:11 49.59619 4.47091 25161 ft 400 kts 268°
2026-05-06 17:12 49.59631 4.42798 24507 ft 401 kts 268°
2026-05-06 17:12 49.59641 4.38506 23974 ft 400 kts 269°
2026-05-06 17:12 49.59649 4.34237 23482 ft 397 kts 269°
2026-05-06 17:12 49.59657 4.29992 22918 ft 394 kts 269°
2026-05-06 17:13 49.59662 4.25785 22373 ft 391 kts 269°
2026-05-06 17:13 49.59666 4.21605 21812 ft 389 kts 269°
2026-05-06 17:13 49.59671 4.17451 21272 ft 386 kts 269°
2026-05-06 17:13 49.59672 4.13328 20743 ft 384 kts 269°
2026-05-06 17:14 49.59520 4.09247 20232 ft 380 kts 259°
2026-05-06 17:14 49.58829 4.05351 19747 ft 375 kts 246°
2026-05-06 17:14 49.57627 4.01813 19245 ft 372 kts 236°
2026-05-06 17:14 49.56673 3.99565 18910 ft 371 kts 236°
2026-05-06 17:15 49.55264 3.96239 18449 ft 370 kts 235°
2026-05-06 17:15 49.53867 3.92935 17979 ft 368 kts 235°
2026-05-06 17:15 49.52476 3.89643 17463 ft 366 kts 236°
2026-05-06 17:15 49.51095 3.86371 16986 ft 363 kts 236°
2026-05-06 17:16 49.49724 3.83124 16520 ft 361 kts 236°
2026-05-06 17:16 49.48364 3.79901 16065 ft 358 kts 237°
2026-05-06 17:16 49.47283 3.76471 15618 ft 357 kts 250°
2026-05-06 17:16 49.46627 3.72810 15282 ft 352 kts 254°
2026-05-06 17:17 49.46034 3.69232 15161 ft 340 kts 255°
2026-05-06 17:17 49.45454 3.65771 15033 ft 328 kts 255°
2026-05-06 17:17 49.44888 3.62425 14848 ft 320 kts 254°
2026-05-06 17:17 49.44327 3.59142 14539 ft 316 kts 254°
2026-05-06 17:18 49.43768 3.55878 14184 ft 315 kts 255°
2026-05-06 17:18 49.43213 3.52627 13791 ft 315 kts 255°
2026-05-06 17:18 49.42647 3.49378 13403 ft 313 kts 251°
2026-05-06 17:18 49.41716 3.46382 12983 ft 311 kts 234°
2026-05-06 17:19 49.40288 3.43938 12668 ft 307 kts 218°
2026-05-06 17:19 49.38508 3.42154 12290 ft 304 kts 208°
2026-05-06 17:19 49.36668 3.40575 11953 ft 303 kts 208°
2026-05-06 17:19 49.34835 3.38993 11620 ft 301 kts 208°
2026-05-06 17:20 49.32989 3.37396 11298 ft 301 kts 209°
2026-05-06 17:20 49.31172 3.35822 10960 ft 300 kts 207°
2026-05-06 17:20 49.29349 3.34246 10629 ft 300 kts 209°
2026-05-06 17:20 49.27544 3.32669 10295 ft 299 kts 212°
2026-05-06 17:21 49.25864 3.30811 9973 ft 297 kts 215°
2026-05-06 17:21 49.24211 3.28923 9632 ft 296 kts 215°
2026-05-06 17:21 49.22566 3.27044 9292 ft 295 kts 216°
2026-05-06 17:21 49.20920 3.25169 8975 ft 293 kts 216°
2026-05-06 17:22 49.19292 3.23320 8660 ft 291 kts 216°
2026-05-06 17:22 49.17669 3.21479 8335 ft 289 kts 216°
2026-05-06 17:22 49.16057 3.19654 8024 ft 288 kts 216°
2026-05-06 17:22 49.14455 3.17842 7706 ft 284 kts 215°
2026-05-06 17:23 49.12879 3.16058 7401 ft 280 kts 216°
2026-05-06 17:23 49.11371 3.14205 7102 ft 277 kts 225°
2026-05-06 17:23 49.10135 3.11983 6804 ft 273 kts 230°
2026-05-06 17:23 49.08943 3.09761 6502 ft 269 kts 230°
2026-05-06 17:24 49.07762 3.07564 6200 ft 267 kts 230°
2026-05-06 17:24 49.06594 3.05399 5901 ft 263 kts 230°
2026-05-06 17:24 49.05559 3.03136 5585 ft 260 kts 249°
2026-05-06 17:24 49.05315 3.00520 5479 ft 244 kts 281°
2026-05-06 17:25 49.05949 2.98276 5428 ft 223 kts 314°
2026-05-06 17:25 49.07199 2.97044 5342 ft 212 kts 349°
2026-05-06 17:25 49.08642 2.97167 5267 ft 206 kts 26°
2026-05-06 17:25 49.09697 2.98515 5175 ft 204 kts 60°
2026-05-06 17:26 49.10011 3.00591 5116 ft 206 kts 96°
2026-05-06 17:26 49.09435 3.02586 5040 ft 212 kts 130°
2026-05-06 17:26 49.08168 3.03722 4965 ft 218 kts 166°
2026-05-06 17:26 49.06643 3.03697 4866 ft 223 kts 192°
2026-05-06 17:27 49.05250 3.02711 4738 ft 225 kts 218°
2026-05-06 17:27 49.04172 3.00952 4630 ft 227 kts 233°
2026-05-06 17:27 49.03178 2.99115 4477 ft 223 kts 233°
2026-05-06 17:27 49.02197 2.97293 4353 ft 222 kts 234°
2026-05-06 17:28 49.01428 2.95303 4213 ft 216 kts 254°
2026-05-06 17:28 49.01172 2.93076 4090 ft 214 kts 268°
2026-05-06 17:28 49.01062 2.90810 3966 ft 214 kts 269°
2026-05-06 17:28 49.00950 2.88547 3974 ft 214 kts 268°
2026-05-06 17:29 49.00835 2.86274 3744 ft 213 kts 268°
2026-05-06 17:29 49.00723 2.84080 3459 ft 202 kts 268°
2026-05-06 17:29 49.00617 2.82001 3191 ft 192 kts 269°
2026-05-06 17:29 49.00515 2.80023 2959 ft 184 kts 269°
2026-05-06 17:30 49.00419 2.78144 2729 ft 171 kts 269°
2026-05-06 17:30 49.00328 2.76408 2500 ft 157 kts 270°
2026-05-06 17:30 49.00245 2.74787 2285 ft 150 kts 270°
2026-05-06 17:30 49.00164 2.73211 2086 ft 148 kts 270°
2026-05-06 17:31 49.00084 2.71655 1891 ft 147 kts 270°
2026-05-06 17:31 49.00004 2.70098 1682 ft 147 kts 270°
2026-05-06 17:31 48.99923 2.68545 1493 ft 148 kts 270°
2026-05-06 17:31 48.99841 2.66985 1275 ft 147 kts 268°
2026-05-06 17:32 48.99760 2.65437 1064 ft 147 kts 269°
2026-05-06 17:32 48.99679 2.63887 854 ft 147 kts 268°
2026-05-06 17:32 48.99597 2.62334 645 ft 148 kts 272°
2026-05-06 17:32 48.99515 2.60770 446 ft 148 kts 270°
2026-05-06 17:33 48.99447 2.59278 350 ft 114 kts 265°
2026-05-06 17:33 48.99406 2.58534 353 ft 30 kts 266°
2026-05-06 17:33 48.99403 2.58274 357 ft 23 kts 278°
2026-05-06 17:33 48.99437 2.58052 356 ft 21 kts 283°
2026-05-06 17:34 48.99471 2.57848 362 ft 19 kts 285°
2026-05-06 17:34 48.99507 2.57662 361 ft 18 kts 286°
2026-05-06 17:34 48.99515 2.57483 358 ft 16 kts 268°
2026-05-06 17:34 48.99509 2.57315 360 ft 15 kts 266°
2026-05-06 17:35 48.99501 2.57157 354 ft 15 kts 263°
2026-05-06 17:35 48.99488 2.56979 360 ft 17 kts 264°
2026-05-06 17:35 48.99479 2.56804 354 ft 16 kts 266°
2026-05-06 17:36 48.99598 2.56627 354 ft 16 kts 354°
2026-05-06 17:36 48.99727 2.56609 359 ft 20 kts 355°
2026-05-06 17:36 48.99832 2.56690 356 ft 18 kts 72°
2026-05-06 17:36 48.99847 2.56874 360 ft 17 kts 84°
2026-05-06 17:37 48.99858 2.57067 354 ft 21 kts 85°
2026-05-06 17:37 48.99867 2.57293 354 ft 21 kts 86°
2026-05-06 17:37 48.99876 2.57512 360 ft 20 kts 86°
2026-05-06 17:37 48.99885 2.57721 357 ft 19 kts 86°
2026-05-06 17:38 48.99895 2.57921 354 ft 18 kts 83°
2026-05-06 17:38 48.99910 2.58110 354 ft 17 kts 84°
2026-05-06 17:38 48.99920 2.58290 358 ft 17 kts 85°
2026-05-06 17:38 48.99929 2.58465 361 ft 17 kts 85°
2026-05-06 17:39 48.99940 2.58656 354 ft 18 kts 84°
2026-05-06 17:39 49.00026 2.58744 354 ft 16 kts
2026-05-06 17:39 49.00146 2.58765 356 ft 18 kts 357°
2026-05-06 17:39 49.00272 2.58750 354 ft 18 kts 355°
2026-05-06 17:40 49.00395 2.58735 354 ft 17 kts 355°
2026-05-06 17:40 49.00519 2.58720 356 ft 19 kts 355°
2026-05-06 17:40 49.00650 2.58704 354 ft 19 kts 355°
2026-05-06 17:40 49.00779 2.58687 359 ft 18 kts 349°
2026-05-06 17:41 49.00841 2.58548 354 ft 17 kts 271°
2026-05-06 17:41 49.00832 2.58376 354 ft 16 kts 265°
2026-05-06 17:41 49.00824 2.58214 357 ft 15 kts 266°
2026-05-06 17:41 49.00816 2.58061 356 ft 14 kts 266°
2026-05-06 17:42 49.00805 2.57934 361 ft 9 kts 236°
2026-05-06 17:42 49.00758 2.57915 357 ft 6 kts 181°
2026-05-06 17:42 49.00741 2.57914 357 ft 0 kts 182°